Location: Chippewa Lake
(41.0698°N, 81.9010°W)
Time: 01:29:37
(UTC+00:00)

SL-4 R/B - Pass Details

Date: 09 May 2021
Orbit: 427 x 663 km, 51.6° (Epoch: 24 June)

Event Time Altitude Azimuth Distance (km) Brightness Sun altitude
Rises 01:59:32 0° 304° (NW) 2,790 7.5 -14.8°
Reaches altitude 10° 02:01:44 10° 302° (WNW) 1,926 6.2 -15.1°
Maximum altitude 02:06:09 69° 220° (SW) 664 2.3 -15.7°
Enters shadow 02:08:29 28° 143° (SE) 1,175 3.1 -16.1°
